Date String (YYYY-MM-DD hh:mm:ss) UTC,Instrument flags,absolute air pressure of the measurement (hPa),sample flow rate (lpm),inlet stack bypass flow (lpm),air temperature of the measurement (°C),ambient temperature measured by the external sensor (°C),aerosol sample conditioner tube jacket temperature (°C),OPC LED temperature (°C),internal box temperature (°C),relative humidity of the measurement (%),span deviation,mass concentration of particles derived from Lorenz-Mie calculation of OPC scattering (μg/m³),mass concentration of particles derived from Lorenz-Mie calculation of OPC scattering (μg/m³),mass concentration of particles derived from Lorenz-Mie calculation of OPC scattering (μg/m³)
DateTimeUTC,F1_M11,P_M11,Q1_M11,Q2_M11,T1_M11,T2_M11,T3_M11,T4_M11,T5_M11,U1_M11,ZSPAN_M11,X0_M11,X2_M11,X1_M11
2024-01-13 06:00:00,SystemResetWarning,0818.0,5.00,000.00,018.9,017.8,000.0,027.4,020.0,6.2,0000.9,0011.58,0005.02,0004.35
2024-01-13 06:01:00,SystemResetWarning,0818.0,5.01,000.00,018.9,018.0,000.0,027.4,020.3,6.3,0001.2,0011.45,0005.00,0004.35
2024-01-13 06:02:00,SystemResetWarning,0817.9,5.01,000.00,019.0,018.6,000.0,027.3,020.7,6.3,0001.5,0011.30,0005.05,0004.35
2024-01-13 06:03:00,SystemResetWarning,0817.8,4.99,000.00,019.1,018.9,000.0,027.3,020.5,6.3,0002.0,0010.34,0005.07,0004.35
2024-01-13 06:04:00,SystemResetWarning,0817.9,4.99,000.00,019.0,018.7,000.0,027.3,020.0,6.3,0001.8,0010.49,0005.05,0004.35
2024-01-13 06:05:00,SystemResetWarning,0817.9,5.00,000.00,018.9,018.3,000.0,027.3,020.0,6.2,0002.2,0010.97,0005.07,0004.36
2024-01-13 06:06:00,SystemResetWarning,0818.0,5.01,000.00,018.9,018.1,000.0,027.4,020.0,6.3,0002.5,0011.64,0005.06,0004.37
2024-01-13 06:07:00,SystemResetWarning,0818.0,5.00,000.00,018.9,017.9,000.0,027.4,020.0,6.3,0002.6,0011.62,0005.09,0004.38
2024-01-13 06:08:00,SystemResetWarning,0818.0,5.00,000.00,018.9,017.8,000.0,027.4,020.0,6.3,0002.5,0011.49,0005.10,0004.39
2024-01-13 06:09:00,SystemResetWarning,0817.9,5.00,000.00,018.9,017.9,000.0,027.3,020.3,6.3,0003.2,0012.03,0005.14,0004.42
2024-01-13 06:10:00,SystemResetWarning,0818.0,5.02,000.00,019.0,018.6,000.0,027.3,020.7,6.2,0002.5,0012.31,0005.14,0004.44
2024-01-13 06:11:00,SystemResetWarning,0818.1,5.00,000.00,019.1,019.3,000.0,027.3,020.9,6.1,0000.0,0012.23,0005.14,0004.46
2024-01-13 06:12:00,SystemResetWarning,0818.0,4.99,000.00,019.2,019.2,000.0,027.3,020.5,6.0,0000.0,0012.08,0005.14,0004.46
2024-01-13 06:13:00,SystemResetWarning,0818.1,5.00,000.00,019.0,018.9,000.0,027.3,020.0,6.1,0000.0,0012.02,0005.14,0004.49
2024-01-13 06:14:00,SystemResetWarning,0818.0,5.00,000.00,019.0,018.5,000.0,027.3,020.0,6.0,0000.0,0012.26,0005.12,0004.51
2024-01-13 06:15:00,SystemResetWarning,0818.0,5.00,000.00,018.9,018.3,000.0,027.4,020.0,6.0,0000.0,0012.39,0005.12,0004.51
2024-01-13 06:16:00,SystemResetWarning,0818.0,4.99,000.00,018.9,018.0,000.0,027.4,020.0,6.0,0000.0,0012.66,0005.14,0004.52
2024-01-13 06:17:00,SystemResetWarning,0818.0,5.00,000.00,018.9,017.9,000.0,027.4,020.0,6.0,0000.0,0011.73,0005.11,0004.52
2024-01-13 06:18:00,SystemResetWarning,0818.2,5.01,000.00,018.9,017.8,000.0,027.4,020.1,6.0,0000.0,0011.75,0005.08,0004.51
2024-01-13 06:19:00,SystemResetWarning,0818.2,5.01,000.00,018.9,018.2,000.0,027.3,020.4,6.0,0000.0,0011.77,0005.06,0004.50
2024-01-13 06:20:00,SystemResetWarning,0818.3,4.99,000.00,019.0,018.9,000.0,027.3,020.7,5.9,0000.0,0011.36,0005.03,0004.49
2024-01-13 06:21:00,SystemResetWarning,0818.1,4.99,000.00,019.1,018.9,000.0,027.3,020.4,5.8,0000.0,0011.44,0004.99,0004.47
2024-01-13 06:22:00,SystemResetWarning,0818.0,5.00,000.00,019.0,018.6,000.0,027.3,020.0,5.9,0000.0,0011.40,0004.98,0004.46
2024-01-13 06:23:00,SystemResetWarning,0817.9,5.00,000.00,018.9,018.3,000.0,027.4,020.0,5.9,0000.0,0011.70,0004.99,0004.47
2024-01-13 06:24:00,SystemResetWarning,0818.0,5.00,000.00,018.9,018.1,000.0,027.4,020.0,5.9,0000.5,0011.71,0004.98,0004.45
2024-01-13 06:25:00,SystemResetWarning,0818.2,5.00,000.00,018.9,017.9,000.0,027.4,020.0,5.9,0001.2,0011.62,0004.98,0004.41
2024-01-13 06:26:00,SystemResetWarning,0818.1,4.99,000.00,018.9,017.8,000.0,027.4,020.1,5.9,0000.8,0011.48,0004.96,0004.36
2024-01-13 06:27:00,SystemResetWarning,0818.0,5.01,000.00,018.9,018.2,000.0,027.3,020.5,5.8,0000.7,0011.43,0004.94,0004.32
2024-01-13 06:28:00,SystemResetWarning,0818.1,5.00,000.00,019.0,018.9,000.0,027.3,020.8,5.8,0000.8,0012.42,0004.92,0004.28
2024-01-13 06:29:00,SystemResetWarning,0818.1,4.99,000.00,019.1,018.9,000.0,027.3,020.4,5.8,0000.9,0013.39,0004.90,0004.25
2024-01-13 06:30:00,SystemResetWarning,0818.1,4.99,000.00,019.0,018.6,000.0,027.3,020.0,5.8,0001.1,0013.64,0004.89,0004.21
2024-01-13 06:31:00,SystemResetWarning,0818.1,5.00,000.00,018.9,018.4,000.0,027.3,020.0,5.8,0001.2,0014.18,0004.89,0004.19
2024-01-13 06:32:00,SystemResetWarning,0818.3,5.00,000.00,018.9,018.1,000.0,027.4,020.0,5.8,0001.1,0013.98,0004.90,0004.16
2024-01-13 06:33:00,SystemResetWarning,0818.3,5.00,000.00,018.9,017.9,000.0,027.4,020.0,5.8,0001.1,0014.14,0004.94,0004.13
2024-01-13 06:34:00,SystemResetWarning,0818.2,5.00,000.00,018.9,017.8,000.0,027.4,020.0,5.8,0001.6,0013.84,0004.91,0004.09
2024-01-13 06:35:00,SystemResetWarning,0818.2,5.00,000.00,018.8,017.7,000.0,027.4,020.1,5.8,0001.6,0013.80,0004.87,0004.07
2024-01-13 06:36:00,SystemResetWarning,0818.3,5.01,000.00,018.9,018.2,000.0,027.3,020.4,5.8,0001.3,0013.58,0004.81,0004.04
2024-01-13 06:37:00,SystemResetWarning,0818.3,5.01,000.00,019.0,018.9,000.0,027.3,020.8,5.8,0001.7,0013.42,0004.77,0004.04
2024-01-13 06:38:00,SystemResetWarning,0818.3,4.98,000.00,019.1,019.0,000.0,027.3,020.4,5.7,0002.6,0013.17,0004.79,0004.03
2024-01-13 06:39:00,SystemResetWarning,0818.3,5.01,000.00,019.0,018.7,000.0,027.3,020.1,5.8,0002.8,0012.45,0004.80,0004.02
2024-01-13 06:40:00,SystemResetWarning,0818.2,5.01,000.00,018.9,018.4,000.0,027.3,020.0,5.8,0002.9,0011.94,0004.80,0004.01
2024-01-13 06:41:00,SystemResetWarning,0818.3,4.99,000.00,018.9,018.2,000.0,027.3,020.0,5.8,0003.0,0011.82,0004.78,0004.00
2024-01-13 06:42:00,SystemResetWarning,0818.3,4.98,000.00,018.9,018.0,000.0,027.4,020.0,5.8,0002.7,0011.61,0004.73,0003.98
2024-01-13 06:43:00,SystemResetWarning,0818.4,5.01,000.00,018.8,017.8,000.0,027.4,020.0,5.8,0002.6,0011.62,0004.74,0003.96
2024-01-13 06:44:00,SystemResetWarning,0818.5,5.00,000.00,018.8,017.7,000.0,027.4,020.0,5.8,0002.5,0012.18,0004.68,0003.93
2024-01-13 06:45:00,SystemResetWarning,0818.6,5.01,000.00,018.8,017.8,000.0,027.4,020.2,5.8,0001.6,0012.32,0004.67,0003.91
2024-01-13 06:46:00,SystemResetWarning,0818.7,5.00,000.00,018.9,018.4,000.0,027.3,020.6,5.7,0001.8,0012.42,0004.66,0003.89
2024-01-13 06:47:00,SystemResetWarning,0818.6,5.00,000.00,019.0,019.0,000.0,027.3,020.7,5.7,0001.8,0013.45,0004.67,0003.88
2024-01-13 06:48:00,SystemResetWarning,0818.5,4.99,000.00,019.0,018.8,000.0,027.3,020.3,5.7,0001.8,0013.51,0004.71,0003.86
2024-01-13 06:49:00,SystemResetWarning,0818.5,5.00,000.00,018.9,018.5,000.0,027.3,020.0,5.7,0000.8,0013.24,0004.70,0003.86
2024-01-13 06:50:00,SystemResetWarning,0818.5,5.00,000.00,018.9,018.3,000.0,027.3,020.0,5.7,0000.0,0013.06,0004.66,0003.85
2024-01-13 06:51:00,SystemResetWarning,0818.5,5.01,000.00,018.9,018.1,000.0,027.3,020.0,5.7,-000.5,0012.74,0004.62,0003.85
2024-01-13 06:52:00,SystemResetWarning,0818.4,5.00,000.00,018.8,017.9,000.0,027.4,020.0,5.7,-000.2,0012.11,0004.60,0003.85
2024-01-13 06:53:00,SystemResetWarning,0818.3,5.00,000.00,018.8,017.8,000.0,027.4,020.0,5.7,0000.3,0011.94,0004.62,0003.85
2024-01-13 06:54:00,SystemResetWarning,0818.3,5.00,000.00,018.8,017.8,000.0,027.3,020.2,5.7,0000.6,0011.74,0004.62,0003.85
2024-01-13 06:55:00,SystemResetWarning,0818.4,5.01,000.00,018.9,018.4,000.0,027.3,020.6,5.7,0000.2,0010.78,0004.65,0003.85
2024-01-13 06:56:00,SystemResetWarning,0818.5,5.00,000.00,019.1,019.0,000.0,027.3,020.7,5.7,0000.1,0010.96,0004.71,0003.86
2024-01-13 06:57:00,SystemResetWarning,0818.5,4.99,000.00,019.0,018.9,000.0,027.3,020.3,5.6,-000.2,0011.71,0004.77,0003.87
2024-01-13 06:58:00,SystemResetWarning,0818.4,4.99,000.00,018.9,018.6,000.0,027.3,020.0,5.7,0000.2,0011.60,0004.79,0003.89
2024-01-13 06:59:00,SystemResetWarning,0818.5,5.00,000.00,018.9,018.3,000.0,027.3,020.0,5.7,0000.4,0012.65,0004.82,0003.92
